Flag for U.S.A. Weather past 2 weeks in Anderson, South Carolina, U.S.A.

Now
79 °F

Clear.


Feels Like: 81 °F
Forecast: 74 / 89 °F
Wind: 6 mph from Northeast

Location: Anderson County Airport

Current Time: Jul 31, 2015 at 6:01:40 AM

Latest Report: Jul 31, 2015 at 4:56 AM


Visibility: 10 mi

Pressure: 29.90 "Hg

Humidity: 69%

Dew point: 68 °F

Location of AndersonLocation

Historic Weather in Anderson — Graph

°F

Anderson temperature yesterday

Maximum temperature yesterday: 96 °F (at 5:56 PM)
Minimum temperature yesterday: 73 °F (at 4:56 AM)
Average temperature yesterday: 85 °F

Past Weeks' High & Low Weather Summary

 TemperatureHumidityPressure
High96 °F (Jul 27, 3:56 PM)97% (Jul 20, 3:56 AM)30.08 "Hg (Jul 20, 3:56 AM)
Low69 °F (Jul 26, 6:56 AM)37% (Jul 22, 5:56 PM)29.74 "Hg (Jul 21, 5:56 PM)
Average82 °F70%29.93 "Hg
* Reported Jul 16 4:56 AM — Jul 31 4:56 AM, Anderson, Weather by CustomWeather, © 2015

Note: Actual official high and low records may vary slightly from our data, if they occured in-between our weather recording intervals... More about our weather records

Advertising

Anderson weather history for previous 24 hours

 ConditionsComfort  
Time TempWeatherWind HumidityBarometerVisibility
4:56 AM
Fri, Jul 31
79 °FClear.6 mph69%29.90 "Hg10 mi
3:56 AM79 °FPassing clouds.8 mph72%29.90 "Hg10 mi
2:56 AM81 °FClear.5 mph67%29.90 "Hg10 mi
1:56 AM82 °FClear.7 mph67%29.90 "Hg10 mi
12:56 AM84 °FPassing clouds.8 mph63%29.90 "Hg10 mi
11:56 PM
Thu, Jul 30
85 °FPassing clouds.7 mph68%29.91 "Hg10 mi
10:56 PM84 °FOvercast.No wind77%29.90 "Hg10 mi
9:56 PM84 °FPassing clouds.No wind74%29.89 "Hg10 mi
8:56 PM87 °FSunny.No wind67%29.87 "Hg10 mi
7:56 PM92 °FSunny.3 mph51%29.86 "Hg10 mi
6:56 PM95 °FSunny.5 mph44%29.85 "Hg10 mi
5:56 PM96 °FSunny.8 mph44%29.86 "Hg10 mi
4:56 PM95 °FSunny.5 mph44%29.86 "Hg10 mi
3:56 PM95 °FSunny.5 mph46%29.88 "Hg10 mi
2:56 PM93 °FPartly sunny.3 mph46%29.91 "Hg10 mi
1:56 PM94 °FSunny.5 mph46%29.94 "Hg10 mi
12:56 PM91 °FSunny.6 mph54%29.96 "Hg10 mi
11:56 AM89 °FPassing clouds.3 mph63%29.97 "Hg10 mi
10:56 AM89 °FSunny.5 mph63%29.96 "Hg10 mi
9:56 AM84 °FSunny.No wind72%29.96 "Hg2 mi
8:56 AM81 °FSunny.3 mph85%29.97 "Hg10 mi
7:56 AM78 °FSunny.No wind90%29.96 "Hg10 mi
6:56 AM73 °FClear.3 mph97%29.95 "Hg7 mi
Weather by CustomWeather, © 2015

See weather overviewHow to use our weather pages